Location: Newark
(48.6461°N, 4.3644°W)
Time: 05:04:55
(UTC+00:00)

Transit 4A - Pass Details

Date: 02 February 2020
Orbit: 872 x 973 km, 66.8° (Epoch: 17 February)

Event Time Altitude Azimuth Distance (km) Brightness Sun altitude
Rises 10:56:39 0° 322° (NW) 3,480 10.3 21.2°
Reaches altitude 10° 11:00:01 10° 341° (NNW) 2,533 9.7 21.4°
Maximum altitude 11:03:55 18° 23° (NNE) 2,022 9.4 21.6°
Drops below altitude 10° 11:07:48 10° 65° (ENE) 2,530 10.2 21.9°
Sets 11:11:10 0° 84° (E) 3,474 11.1 22.1°
